Regional Weather Roundup
Issued by NWS Little Rock, AR

Home | Current Version | Previous Version | Graphics & Text | Print | Product List | Glossary On
Versions: 1 2 3 4 5 6 7 8 9 10 11 12 13 14 15 16 17 18 19 20 21 22 23 24 25 26 27 28 29 30 31 32 33 34 35 36 37 38 39 40 41 42 43 44 45 46 47 48 49 50
173
ASUS44 KLZK 171505
RWRLZK

WEATHER ROUNDUP FOR ARKANSAS
NATIONAL WEATHER SERVICE LITTLE ROCK AR
900 AM CST FRI NOV 17 2017

NOTE: "FAIR" INDICATES FEW OR NO CLOUDS BELOW 12,000 FEET WITH NO
SIGNIFICANT WEATHER AND/OR OBSTRUCTIONS TO VISIBILITY.

ARZ001-003-010-029-171600-
NORTHWEST ARKANSAS

CITY           SKY/WX    TMP DP  RH WIND       PRES   REMARKS
FAYETTEVILLE   CLOUDY    57  56  96 S16       29.89F FOG
FORT SMITH     CLOUDY    59  53  80 NE8       29.93F
HARRISON       CLOUDY    56  51  84 SE15      29.94F
BENTONVILLE    CLOUDY    59  56  89 S16G22    29.89F
ROGERS         CLOUDY    60  56  86 S20G26    29.88F
SILOAM SPGS    CLOUDY    59  56  89 S15G21    29.88F
HIGHFILL       CLOUDY    59  57  93 S18G28    29.87F
SPRINGDALE     CLOUDY    59  57  94 S12       29.90F FOG
$$

ARZ004-005-016-171600-
NORTH CENTRAL ARKANSAS

CITY           SKY/WX    TMP DP  RH WIND       PRES   REMARKS
BATESVILLE     CLOUDY    54  47  77 SE7       30.04F
FLIPPIN        CLOUDY    55  48  77 VRB5      29.98F
MTN HOME       CLOUDY    52  47  83 S8        29.97F
$$

ARZ040-041-171600-
WEST CENTRAL ARKANSAS

CITY           SKY/WX    TMP DP  RH WIND       PRES   REMARKS
MENA           CLOUDY    64  63  94 S7        29.97F
MOUNT IDA      CLOUDY    60  59  96 S8        29.97F FOG
$$

ARZ009-017-025-026-028-171600-
NORTHEAST ARKANSAS

CITY           SKY/WX    TMP DP  RH WIND       PRES   REMARKS
CORNING        CLOUDY    46  43  87 E6        30.07F
JONESBORO      CLOUDY    53  45  74 S12       30.07S
NEWPORT        CLOUDY    54  48  80 S9        30.06S
WALNUT RIDGE     N/A    N/A N/A N/A MISG        N/A
BLYTHEVILLE    CLOUDY    51  44  77 S10       30.09F
NW BLYTHEVILLE CLOUDY    52  43  71 SE10      30.09S
$$

ARZ022-023-033-042-044-171600-
CENTRAL ARKANSAS

CITY           SKY/WX    TMP DP  RH WIND       PRES   REMARKS
LITTLE ROCK    PTSUNNY   58  54  86 S7        30.04F
N LITTLE ROCK    N/A     58  53  85 S9        30.04F
JACKSONVILLE   PTSUNNY   58  54  86 SE8       30.02F
HOT SPRINGS    CLOUDY    60  57  89 VRB5      30.03S
RUSSELLVILLE   CLOUDY    56  49  77 VRB5      29.99S
CLINTON        CLOUDY    54  46  76 CALM      30.03F
$$

ARZ036-171600-
EAST ARKANSAS

CITY           SKY/WX    TMP DP  RH WIND       PRES   REMARKS
WEST MEMPHIS   CLOUDY    55  45  68 S13       30.07F
$$

ARZ050-053-066-070-073-171600-
SOUTHWEST ARKANSAS

CITY           SKY/WX    TMP DP  RH WIND       PRES   REMARKS
ARKADELPHIA    CLOUDY    62  57  83 S7        30.03F
CAMDEN         PTSUNNY   64  55  72 S7        30.04F
TEXARKANA      MOSUNNY   66  63  90 S13       30.01S
EL DORADO      PTSUNNY   64  61  90 SE10      30.06F
DE QUEEN       CLOUDY    61  61 100 E5        29.98S FOG
$$

ARZ056-057-069-171600-
SOUTHEAST ARKANSAS

CITY           SKY/WX    TMP DP  RH WIND       PRES   REMARKS
PINE BLUFF     CLOUDY    60  56  86 SE9       30.06F
STUTTGART      CLOUDY    60  56  86 S10       30.06F
MONTICELLO     SUNNY     63  57  81 S7        30.07F

$$






USA.gov is the U.S. government's official web portal to all federal, state and local government web resources and services.